HUBBLE
1 20580U 90037B 10066.57864224 .00000570 00000-0 30822-4 0 05329
2 20580 028.4687 183.1574 0003395 198.8317 161.2293 15.00913799889472
ISS
1 25544U 98067A 10066.48187660 .00014123 00000-0 10239-3 0 7215
2 25544 051.6482 032.7439 0007757 023.0370 074.9567 15.73705588647450
CO-58
1 28895U 05043F 10067.63944091 .00000074 00000-0 24850-4 0 05309
2 28895 098.0271 315.3687 0016921 238.1906 121.7657 14.59855613232319
FALCON
1 30776U 07006E 10065.89131473 .00000704 00000-0 53596-4 0 7793
2 30776 035.4345 305.2874 0001717 343.4872 016.5788 15.03507708164658
MAST
1 31126U 07012K 10067.78935783 .00000066 00000-0 25220-4 0 08140
2 31126 097.9504 114.9330 0094474 177.5470 182.6183 14.53560879153476
CAPE1
1 31130U 07012P 10067.53675659 .00000197 00000-0 56121-4 0 08320
2 31130 097.9499 112.3033 0102494 185.8109 174.1921 14.52144186153057
COMPASS
1 32787U 08021E 10066.61121754 .00000597 00000-0 82325-4 0 06147
2 32787 097.9046 132.7210 0014822 254.8566 105.1033 14.81781113100451
AAUSAT2
1 32788U 08021F 10067.43414337 .00000661 00000-0 90089-4 0 06105
2 32788 097.9079 133.6431 0013870 252.7227 107.2438 14.81918785100589
DO-64
1 32789U 08021G 10065.89797618 .00001078 00000-0 14242-3 0 6233
2 32789 097.9107 132.4892 0014672 256.9700 102.9844 14.81998471100351
CO-66
1 32791U 08021J 10065.40323763 .00000262 00000-0 40139-4 0 6036
2 32791 097.9067 131.5534 0014983 258.6058 101.3481 14.81580913100237
RS-30
1 32953U 08025A 10067.59796295 .00000010 00000-0 00000-0 0 05439
2 32953 082.4975 092.2354 0018125 326.1040 033.8886 12.43004126081241
TACSAT-3
1 35001U 09028A 10066.51435938 .00005970 00000-0 14754-3 0 2324
2 35001 040.4553 104.3727 0023351 322.0728 037.8441 15.40591047 44948
PHARMSAT
1 35002U 09028B 10066.24672703 .00005264 00000-0 12780-3 0 2208
2 35002 040.4695 104.3829 0026386 323.8566 036.0466 15.41221037 44914
HAWKSAT1
1 35003U 09028C 10066.19738930 .00010480 00000-0 23331-3 0 2321
2 35003 040.4618 101.9687 0024726 332.0065 027.9415 15.43153776 44949
CP6
1 35004U 09028D 10067.46658570 .00012303 00000-0 26886-3 0 02283
2 35004 040.4624 093.9987 0023755 342.0491 017.9483 15.43616859045137
AEROCUB3
1 35005U 09028E 10067.47286393 .00024277 00000-0 50300-3 0 02534
2 35005 040.4731 094.3631 0021506 340.9109 019.0899 15.44896863045133
DRAGNSAT
1 35690U 09038B 10066.12079401 .00488055 13925-3 40347-3 0 3000
2 35690 051.6306 011.1391 0003966 161.9362 198.1771 16.13316135 34926
POLLUX
1 35693U 09038E 10066.22036237 .00236044 36335-4 33309-3 0 2979
2 35693 051.6332 013.4000 0004930 141.4160 218.7206 16.05207381 34870
CASTOR
1 35694U 09038F 10066.10399590 .00045708 00000-0 15816-3 0 2177
2 35694 051.6394 021.0992 0004594 131.4043 228.7236 15.88999850 34760
METEOR-M
1 35865U 09049A 10067.71387604 .00000176 00000-0 10000-3 0 01461
2 35865 098.7715 122.1725 0001868 309.8782 050.2181 14.21829086024448
RS-38
1 35869U 09049E 10067.69600013 .00000176 00000-0 10000-3 0 01497
2 35869 098.7707 122.1797 0004064 304.1186 055.9563 14.21976712024444
